GFSSE_250_rhum_351.txt.gz
RH
61 52 38 29 30 28 20 15 14 19 16 23 45 47 78 73 84 90 69 66 86 99 96 93 91 99 97 100 100 100 100 96 90 100 97 86 82 93 100 100 95 88 98
63 60 40 28 27 34 23 18 17 29 29 26 45 71 86 75 80 80 63 85 93 100 100 98 92 90 96 100 97 100 100 85 79 84 96 93 90 100 99 100 100 100 100
67 62 47 37 30 32 32 26 40 26 34 41 61 79 92 79 88 79 66 65 66 89 86 100 100 100 95 85 86 91 99 100 84 77 93 100 100 96 97 100 100 98 93
56 50 50 43 34 34 41 37 28 29 44 60 80 57 66 72 89 82 92 72 73 77 73 73 85 87 83 92 100 92 76 71 86 100 65 83 91 92 96 88 95 97 96
70 55 47 49 38 43 45 45 40 34 35 48 66 66 58 66 56 74 82 90 70 60 48 52 66 71 81 78 100 99 83 75 70 83 100 88 94 94 96 96 92 90 91
76 74 62 64 44 49 49 49 40 32 28 34 33 43 64 58 59 61 100 57 61 51 47 46 65 81 85 79 76 84 100 95 90 94 100 95 100 100 100 100 100 100 94
78 92 91 92 61 44 56 51 44 40 47 36 57 42 36 54 60 72 77 68 54 59 68 57 49 64 78 85 90 77 79 90 97 100 100 100 100 100 99 100 96 94 85
76 82 87 96 87 64 60 58 56 47 43 92 53 58 56 38 40 33 48 40 47 46 54 77 77 64 71 88 96 84 80 85 84 91 100 100 100 92 97 94 83 84 94
72 87 98 87 100 97 68 66 65 62 48 57 97 86 59 67 48 58 72 57 49 40 41 46 56 67 60 65 51 54 84 94 97 87 80 88 89 91 91 94 98 81 82
96 78 100 100 100 100 91 68 67 68 68 59 63 78 100 91 76 85 67 60 68 55 46 42 50 58 50 44 39 36 45 62 66 82 92 85 89 79 82 82 100 92 85
100 100 100 100 100 100 89 86 75 69 70 72 58 91 93 100 100 100 99 94 74 86 80 68 68 60 66 63 46 36 35 36 42 50 70 74 68 84 97 92 88 97 97
100 100 100 100 100 100 100 100 95 82 70 67 73 66 100 100 100 100 100 100 100 94 99 97 100 90 79 71 61 53 49 42 45 42 41 39 37 44 64 80 82 93 92
100 100 100 100 100 100 100 100 100 100 81 73 64 76 67 78 100 100 100 100 100 100 100 100 100 98 99 91 86 75 76 64 66 61 57 53 52 49 53 82 86 90 92
100 100 100 100 100 100 100 100 100 100 100 85 72 63 71 75 60 69 60 98 100 100 100 98 100 100 100 100 100 100 97 96 92 92 91 83 76 87 68 69 92 96 95
100 100 100 100 100 100 100 100 100 100 100 100 81 79 65 72 85 73 57 52 55 51 44 34 30 28 41 84 96 100 100 100 100 99 100 96 88 90 89 73 68 72 67
100 100 100 100 100 100 100 100 100 100 100 100 100 90 80 71 83 96 93 82 71 62 57 56 41 36 29 26 29 47 82 87 94 97 88 70 41 56 46 96 98 91 79
100 100 100 100 100 100 100 100 100 100 100 100 100 100 100 91 86 97 100 100 98 90 84 79 77 66 49 41 34 32 30 29 29 31 21 16 14 13 14 17 51 91 79
100 100 100 100 100 100 100 100 100 100 100 100 100 100 100 100 100 96 100 100 100 100 96 86 83 82 77 76 65 51 43 44 38 32 30 26 24 20 19 17 13 13 18
100 100 100 100 100 100 100 100 100 100 100 100 100 100 100 100 100 100 100 100 100 100 100 100 100 95 83 76 72 73 76 65 52 50 47 40 33 27 28 27 26 23 20
100 100 100 100 100 100 100 100 100 100 100 100 100 100 100 100 100 100 100 100 100 100 100 100 100 100 100 98 92 84 84 81 76 74 66 60 60 41 36 32 32 33 32
100 100 100 100 100 100 100 100 100 100 98 100 100 100 100 100 100 100 100 100 100 100 100 100 100 100 100 100 100 95 86 88 85 76 75 79 77 78 83 89 68 44 39
100 100 100 100 100 100 100 100 100 100 100 100 100 100 100 100 100 100 100 100 100 100 100 100 100 100 100 100 100 100 100 100 94 85 77 78 83 83 84 85 88 96 92
100 100 100 100 100 100 100 100 100 100 100 100 100 100 100 100 100 100 100 100 100 100 100 100 100 100 100 100 100 100 100 100 100 100 100 100 100 100 99 97 94 92 85
100 100 100 100 100 100 100 100 100 100 100 100 100 100 100 100 100 100 100 100 100 100 100 100 100 100 100 100 100 100 100 100 100 100 100 100 100 100 91 89 93 98 98
56 65 100 100 100 100 100 100 100 100 100 100 100 100 100 100 100 100 100 100 100 100 100 100 100 100 100 100 100 100 100 100 100 100 100 100 100 100 100 90 78 78 78
71 59 50 94 100 100 100 100 100 100 100 100 100 100 100 100 100 100 95 86 100 100 100 99 99 100 100 100 100 100 100 100 100 100 100 100 100 100 95 88 81 77 77

GFSSE_250_rhum_357.txt.gz
RH
56 47 42 42 42 48 44 35 35 29 21 20 20 34 48 56 61 71 61 53 55 68 72 100 82 92 82 80 92 96 89 100 92 88 77 76 76 79 72 67 71 70 72
45 53 52 49 52 47 48 44 35 31 25 18 42 40 48 55 54 63 47 54 55 66 55 81 100 89 90 92 99 93 82 94 100 89 78 74 69 72 70 69 72 82 99
59 57 61 65 60 62 52 45 40 34 30 24 53 40 42 61 57 61 70 77 75 88 74 66 100 76 74 89 98 100 99 84 78 84 92 88 89 84 83 95 88 81 91
71 73 72 88 82 74 68 51 45 38 33 28 61 64 34 53 68 67 99 100 100 100 99 100 97 75 88 100 91 100 100 100 100 85 87 82 76 84 93 100 100 98 100
78 78 86 99 97 90 81 64 60 48 35 58 70 67 51 37 53 62 83 100 99 100 100 100 100 100 100 100 100 86 90 92 84 88 86 77 70 70 81 98 100 100 99
84 86 95 99 99 100 94 82 89 61 53 77 69 81 68 66 50 48 70 72 100 100 100 92 89 95 86 99 100 77 68 76 71 71 63 73 72 74 76 84 90 96 100
92 91 100 100 100 100 100 91 96 94 76 88 62 63 61 81 71 52 51 74 60 76 85 98 100 97 93 80 77 77 78 73 80 75 76 76 81 74 70 67 71 93 94
100 100 100 100 100 100 100 96 100 100 79 62 50 50 46 43 66 55 67 68 83 91 73 73 82 70 74 61 53 48 50 63 94 91 100 100 100 97 88 84 79 82 79
100 100 100 100 100 100 100 100 100 100 99 93 55 50 50 48 54 95 95 67 59 55 50 66 64 73 69 61 57 59 65 81 84 78 98 100 100 100 100 100 97 89 94
100 100 100 100 100 100 100 100 100 100 100 100 82 59 53 50 49 46 59 91 88 58 32 43 50 69 61 48 56 61 72 93 92 100 100 99 96 97 100 100 100 100 100
94 100 100 100 100 100 100 100 100 100 100 100 100 88 65 59 56 56 49 64 89 85 74 60 82 64 61 52 54 52 49 46 60 77 86 93 80 53 70 91 83 98 100
34 98 100 100 100 100 100 100 100 100 100 100 100 100 100 93 73 68 62 65 62 87 92 86 100 81 78 58 66 55 54 60 59 58 70 81 71 48 47 54 78 82 81
22 26 89 100 100 100 100 100 100 100 100 100 100 100 100 100 100 90 82 73 89 78 81 84 73 78 76 55 58 69 58 86 67 61 68 58 57 49 56 63 55 60 55
25 26 35 55 100 100 100 100 100 100 100 100 100 100 100 100 100 100 100 95 88 95 95 100 91 89 75 76 100 87 100 95 96 59 85 70 71 60 60 59 53 49 60
31 30 25 40 73 100 100 100 100 100 100 100 100 100 100 100 100 100 100 100 100 93 91 94 92 100 92 93 99 71 78 72 58 77 70 56 70 95 92 72 63 66 58
41 37 35 29 49 83 100 100 100 100 100 100 100 100 100 100 100 100 100 100 100 100 93 86 98 89 96 99 99 97 100 100 100 100 100 99 100 96 97 100 100 95 83
53 48 46 40 33 61 100 99 100 100 100 100 100 100 100 100 100 100 100 100 100 100 100 100 100 100 100 100 100 100 100 100 100 100 100 100 85 55 44 67 64 81 100
77 55 53 59 45 50 87 100 100 100 100 100 100 100 100 100 100 93 100 100 100 100 100 100 100 100 100 100 100 100 84 80 83 84 81 76 54 38 32 28 27 28 58
90 64 62 60 62 50 84 100 100 100 100 100 100 100 100 100 97 100 100 100 100 100 100 100 100 100 100 100 100 100 100 100 97 93 89 84 83 76 67 49 39 34 33
87 85 63 71 67 68 57 77 93 100 100 100 100 100 100 100 100 100 100 100 100 100 100 100 100 100 100 100 100 100 100 100 100 100 100 100 99 96 95 92 87 81 70
64 61 59 69 74 86 74 59 90 100 100 100 100 100 100 100 100 100 100 100 100 100 100 100 100 100 100 100 100 99 99 100 100 100 100 100 100 100 100 100 100 92 84
56 52 50 72 86 93 83 69 62 95 100 100 100 100 100 100 100 93 100 100 100 100 100 100 100 100 100 100 100 100 100 100 100 100 100 100 100 99 97 98 100 100 100
50 47 64 100 99 99 100 76 65 73 95 100 100 100 100 100 100 100 100 96 89 73 98 100 100 100 100 100 100 100 100 100 100 100 100 100 100 100 100 100 100 100 100
53 31 82 100 100 100 100 96 81 73 95 100 100 100 100 100 100 100 100 100 100 100 87 93 94 100 100 100 100 100 100 100 100 100 100 100 100 100 100 100 100 100 100
33 27 100 100 100 100 100 100 92 71 74 96 100 100 100 100 100 100 100 100 100 100 100 100 100 89 86 98 100 100 100 100 100 100 100 100 100 100 100 100 100 100 100
26 33 100 100 100 100 100 100 100 100 90 68 74 98 100 100 100 100 100 100 100 100 97 100 100 100 100 100 100 90 100 94 100 100 100 100 100 100 100 100 100 100 100

GFSSE_250_rhum_360.txt.gz
RH
80 71 73 71 68 59 58 61 62 59 45 40 37 34 22 34 48 60 72 67 68 67 67 73 76 70 72 81 76 69 78 84 86 93 99 95 88 87 89 80 74 66 59
71 68 80 78 72 76 70 67 62 63 48 44 45 43 41 32 36 46 63 68 70 74 86 100 82 79 88 90 89 74 82 96 100 99 82 75 92 90 86 78 64 61 70
72 75 68 77 79 79 87 74 66 57 55 46 56 60 47 45 55 50 61 65 66 63 78 100 88 72 100 87 86 84 92 86 89 99 94 89 70 69 76 82 76 65 63
73 68 65 74 94 87 99 97 88 73 56 46 65 75 76 55 57 60 68 79 84 69 62 97 100 100 96 99 98 100 100 100 81 78 91 86 84 81 76 73 85 84 95
78 84 82 73 81 100 96 100 98 85 66 45 47 93 90 91 66 63 87 94 99 88 100 100 100 96 86 95 99 100 94 99 100 98 87 84 82 86 84 77 89 100 100
72 74 82 91 91 100 96 100 100 90 75 56 54 90 90 90 69 61 89 100 100 100 100 100 100 88 100 100 100 100 100 80 87 94 93 93 86 81 85 84 82 90 100
61 64 86 83 100 100 100 100 100 100 100 99 100 95 100 100 64 68 91 92 100 85 100 100 100 100 100 100 98 100 100 80 68 62 65 65 72 78 81 82 80 74 78
43 39 42 75 100 100 100 100 100 100 100 100 100 100 100 94 77 65 60 78 91 92 100 100 100 100 100 100 96 77 94 93 78 74 71 62 65 66 70 71 88 87 76
20 21 27 48 96 100 100 100 100 100 100 100 100 100 100 100 100 63 61 61 80 91 91 100 100 100 92 85 82 81 78 75 79 74 72 79 74 92 93 74 91 91 84
16 16 18 29 71 100 100 100 100 100 100 100 100 100 100 92 64 58 67 51 65 64 84 95 88 92 97 99 85 88 89 71 71 73 100 100 100 100 100 100 92 86 92
17 16 17 19 29 92 100 100 100 100 100 100 100 100 100 97 79 61 54 70 61 78 74 88 100 100 93 96 99 97 95 82 83 98 100 100 100 100 96 97 98 100 100
20 17 19 21 19 55 100 100 100 100 100 100 100 100 99 100 100 93 69 61 98 98 84 100 89 74 81 65 85 99 93 84 75 88 84 84 89 95 92 100 86 70 62
28 22 20 21 22 22 56 100 99 100 100 100 100 100 100 100 100 100 100 80 74 68 66 89 100 84 54 66 100 100 100 94 83 80 79 60 64 85 91 95 96 79 59
40 32 29 23 23 23 32 72 81 100 98 100 100 100 100 100 100 100 100 99 86 82 81 82 99 87 69 82 100 100 100 100 85 65 70 88 78 89 79 75 84 81 65
60 52 39 31 28 29 24 26 85 95 100 100 100 100 100 100 100 100 100 100 100 85 84 96 99 100 100 94 97 93 99 100 88 78 83 93 99 100 92 66 69 76 77
80 57 55 45 43 35 36 28 30 75 100 100 100 100 100 100 100 100 99 99 100 100 99 94 100 100 100 100 100 98 75 88 75 94 100 97 95 86 56 68 62 68 74
87 86 64 58 48 43 39 38 32 49 54 100 100 100 100 100 100 100 100 100 100 100 100 99 100 100 96 100 88 100 100 93 68 81 90 89 73 87 77 70 82 99 94
100 100 87 73 56 48 49 43 39 35 46 88 100 100 100 100 100 100 100 100 100 100 100 100 100 98 99 100 98 100 77 92 94 92 95 90 93 100 100 100 100 96 84
100 100 87 82 76 67 67 62 45 46 41 53 100 100 100 100 100 100 100 100 100 100 100 100 100 92 100 100 100 100 84 90 100 100 100 100 100 100 97 77 70 66 70
100 100 100 100 100 97 76 69 74 53 46 46 71 82 100 100 100 100 100 100 100 100 100 100 100 100 100 100 100 98 100 100 100 100 100 100 100 99 82 83 84 83 74
100 100 100 100 100 99 88 76 81 76 55 50 49 78 100 100 100 80 100 100 100 100 100 100 100 100 100 100 100 100 100 100 100 100 100 100 100 100 100 100 100 100 100
92 87 93 85 89 93 89 96 88 83 76 50 51 52 82 97 100 100 90 100 100 100 100 100 100 100 100 100 100 100 100 100 100 100 100 100 100 100 100 100 100 100 100
99 77 68 71 76 79 90 82 87 78 74 65 57 56 75 92 100 100 100 100 98 100 100 99 100 100 100 100 100 100 100 100 100 100 100 100 100 100 90 100 100 100 100
94 85 88 86 70 69 65 68 81 76 90 90 78 63 70 63 81 100 100 100 100 99 98 100 100 100 100 100 100 100 100 100 100 100 100 100 100 100 100 100 100 100 100
87 79 72 69 55 59 62 64 72 67 85 100 100 85 89 82 68 100 100 100 100 100 98 86 100 98 99 100 100 100 99 99 100 100 100 100 100 100 100 100 100 100 100
69 70 54 52 52 56 58 64 70 62 91 100 100 100 100 100 76 85 100 100 100 100 100 100 100 100 100 100 100 100 100 92 88 97 100 100 100 100 100 100 100 100 100

GFSSE_250_rhum_366.txt.gz
RH
97 100 100 100 90 86 96 76 84 70 62 61 50 52 39 35 42 42 63 80 100 83 76 96 100 100 100 100 98 97 94 89 85 85 96 100 100 100 100 88 95 98 98
100 100 100 100 100 100 99 82 89 83 75 64 61 54 48 38 46 38 56 77 94 100 97 74 100 78 90 86 81 75 73 62 54 62 75 75 100 100 100 100 100 100 100
100 100 100 100 100 98 100 89 76 75 77 87 62 67 54 42 46 50 46 81 85 84 87 88 66 76 66 66 63 61 68 57 60 61 57 61 77 100 100 100 100 100 97
100 100 100 100 97 94 88 92 80 78 74 83 76 81 58 65 54 69 64 50 65 78 82 87 98 96 80 65 72 76 79 74 84 81 76 79 86 100 100 99 92 86 76
100 100 100 100 97 100 100 98 93 79 82 87 92 80 64 80 63 75 90 79 83 91 90 99 100 100 97 91 100 91 70 71 86 86 94 100 100 100 100 100 97 100 98
100 99 97 100 100 100 94 100 100 94 93 90 99 83 77 83 82 70 98 100 89 98 100 100 100 100 100 100 96 84 71 78 83 100 95 86 93 100 100 97 93 100 92
100 100 100 100 100 100 94 76 91 81 97 92 98 85 76 100 81 77 79 100 100 95 100 100 100 93 100 98 92 96 74 87 100 100 100 100 100 96 92 100 99 96 89
100 100 100 100 100 94 72 57 64 65 85 100 97 100 91 100 90 71 84 100 100 92 100 100 100 100 100 99 100 100 97 100 100 100 100 100 100 100 99 90 87 85 80
87 100 100 73 48 38 30 31 33 49 70 95 100 100 100 100 100 99 97 100 99 100 100 97 100 100 100 100 100 98 88 100 100 88 100 100 95 77 87 100 100 90 85
31 30 28 26 23 21 22 25 29 30 49 90 100 100 100 100 100 100 91 100 96 100 100 100 100 100 100 100 100 100 87 100 100 100 100 100 100 91 76 68 62 68 66
24 24 33 38 33 24 23 23 20 21 30 62 99 100 100 100 100 100 100 85 100 100 100 100 100 100 100 100 100 100 97 100 100 100 100 100 100 100 95 91 66 72 68
48 35 41 49 41 40 32 26 24 20 19 21 86 100 100 100 100 100 100 99 97 99 100 100 100 100 100 100 100 100 99 100 100 100 100 100 100 100 100 98 77 72 61
96 91 54 60 60 51 43 35 26 24 19 20 58 100 100 100 100 100 100 99 98 100 100 100 100 100 100 100 100 100 100 100 100 100 100 100 100 100 100 100 100 91 99
81 100 94 61 75 64 54 45 37 30 23 22 29 98 100 100 100 100 97 100 100 100 92 91 97 100 100 100 100 100 100 100 100 100 100 100 100 100 100 100 99 100 100
62 94 100 81 92 95 77 59 46 37 28 25 24 88 100 100 100 100 100 89 100 100 100 100 100 100 100 100 100 100 100 100 100 100 100 100 100 100 86 93 100 100 98
70 77 100 100 91 85 75 59 59 41 32 31 31 46 100 100 100 100 100 100 100 100 100 93 100 100 100 100 100 100 100 100 100 100 100 100 100 100 86 97 100 100 87
72 72 100 100 100 96 92 72 72 77 42 36 35 35 90 100 100 100 100 100 100 100 100 99 94 100 100 100 100 100 100 99 100 100 99 100 100 100 98 99 100 100 100
83 73 80 100 100 100 100 79 72 71 68 52 40 38 77 94 100 100 100 100 100 100 100 100 98 100 100 100 100 100 100 100 100 100 90 81 81 88 91 93 100 100 100
98 94 76 94 100 100 100 80 75 73 58 62 57 46 38 88 99 100 100 100 100 100 100 100 100 100 100 100 100 100 100 100 100 100 100 98 93 88 98 100 100 90 98
87 86 80 86 100 100 100 100 86 75 82 66 51 52 44 39 87 97 100 100 100 100 100 100 100 100 99 100 100 100 100 100 100 100 100 100 99 100 94 86 95 97 100
87 96 77 98 100 100 100 88 100 80 53 62 58 48 39 40 36 64 85 100 100 100 100 99 100 100 100 100 100 83 100 93 100 100 100 100 100 100 100 100 93 83 96
82 89 90 100 100 100 100 100 100 100 83 76 55 92 79 49 50 46 48 90 100 100 100 100 100 100 100 100 100 100 96 100 100 90 98 100 100 100 100 100 92 80 81
97 100 98 100 100 100 98 100 100 100 98 74 69 100 99 90 76 42 48 46 71 100 100 100 100 100 100 100 100 100 100 100 100 100 100 100 98 98 96 96 99 93 96
95 100 100 100 100 100 100 100 100 100 100 100 62 81 100 99 100 73 38 45 49 61 100 100 100 100 100 100 100 100 100 94 100 90 100 100 100 100 100 100 100 100 100
88 100 100 100 100 100 100 100 100 100 100 100 100 72 99 100 99 67 64 61 57 45 48 65 99 100 100 100 100 100 100 100 100 99 76 94 94 92 100 100 100 100 100
100 100 100 100 100 100 100 100 100 98 100 100 100 97 70 91 80 96 99 99 77 45 56 52 58 71 98 100 100 100 100 100 100 100 100 100 93 84 87 91 98 100 100

GFSSE_250_rhum_372.txt.gz
RH
63 62 59 57 59 59 71 98 90 69 99 100 92 53 53 66 62 45 30 27 33 59 100 100 100 73 92 97 88 93 96 98 85 100 96 92 81 79 95 64 58 98 100
83 99 96 83 71 74 67 62 100 66 66 100 100 71 60 64 64 49 33 26 50 58 100 100 100 99 89 100 100 98 75 94 100 100 100 100 97 78 59 92 78 76 100
100 100 96 88 92 99 99 88 82 79 76 100 100 93 68 74 71 62 44 40 53 70 100 96 100 100 100 99 98 98 100 94 100 100 100 100 100 91 100 88 97 94 87
100 100 100 100 100 100 100 98 98 91 93 100 97 100 69 80 72 66 53 43 44 68 93 91 94 100 100 100 100 100 100 100 100 100 99 91 83 97 100 100 90 97 81
100 100 100 100 100 100 100 100 95 84 89 100 100 100 100 80 85 72 64 58 45 62 83 94 99 98 100 100 100 100 100 100 100 100 92 79 76 68 88 100 100 99 100
100 100 94 79 75 97 100 100 100 100 99 100 100 100 100 97 90 92 71 58 74 76 84 95 97 100 100 100 100 98 100 100 100 95 94 75 68 79 77 73 87 100 100
100 100 100 97 90 86 97 100 100 100 100 100 95 100 100 87 76 92 90 62 98 82 95 91 100 100 100 100 100 100 100 100 100 100 86 79 75 73 81 86 77 84 100
88 89 88 93 93 98 100 100 100 100 100 100 100 100 100 100 92 93 95 81 97 100 99 99 100 100 100 100 100 100 100 100 100 100 96 100 92 93 99 90 99 100 100
53 64 65 72 90 74 82 63 100 100 100 100 100 100 100 100 100 73 86 93 97 100 100 100 94 100 100 97 100 100 99 90 100 91 96 100 99 88 100 100 100 100 100
36 64 50 37 38 48 47 38 32 56 55 95 99 100 100 94 93 78 91 100 100 97 100 100 100 100 100 100 100 100 95 79 78 72 91 100 100 100 100 88 81 97 99
37 43 43 51 70 55 44 34 30 29 32 35 44 54 66 55 42 47 90 100 100 100 100 100 100 100 100 100 94 97 79 100 100 78 72 93 100 100 100 98 100 100 100
40 46 44 50 77 76 74 70 47 30 27 28 28 32 29 29 25 43 100 100 100 88 67 82 100 100 100 100 100 99 87 100 96 76 81 62 98 88 100 100 100 100 100
54 64 97 70 50 51 69 67 93 65 29 29 32 34 28 25 25 69 100 100 100 99 100 100 100 100 100 100 100 100 96 89 100 100 100 79 88 88 100 95 77 82 80
89 86 98 81 68 52 58 62 67 59 49 34 36 34 31 26 34 99 100 100 99 100 100 100 100 88 100 100 100 100 97 100 77 85 99 100 85 99 100 100 84 73 65
92 100 98 78 63 72 54 53 74 89 68 37 45 42 31 25 33 100 100 100 88 100 100 100 100 100 100 100 100 100 100 100 100 100 83 89 79 74 99 95 100 96 73
88 100 90 77 66 90 91 63 64 86 88 51 54 42 35 26 30 100 100 100 100 100 100 100 100 100 100 100 100 100 92 100 99 88 86 100 100 100 100 99 90 66 88
100 100 100 100 90 75 92 76 71 84 93 79 50 59 34 24 30 100 100 100 100 100 100 100 100 84 91 94 100 100 100 100 100 100 92 100 100 100 100 100 100 100 100
100 100 100 97 94 64 96 81 86 87 92 85 64 59 61 31 25 71 100 100 100 100 97 100 100 100 100 86 84 99 89 100 100 100 100 74 89 84 96 100 99 100 100
100 100 100 100 100 93 74 98 67 85 100 83 75 51 61 55 30 28 86 100 100 100 100 100 100 100 99 86 44 49 47 58 94 100 99 100 100 96 86 98 100 81 74
100 100 100 100 100 100 64 91 98 87 100 99 76 58 71 91 39 28 34 89 100 100 100 100 100 100 100 100 96 82 96 96 100 100 100 100 100 100 100 100 100 100 88
100 100 100 100 100 100 87 73 100 93 90 100 93 59 95 73 74 34 33 41 98 100 100 100 100 100 100 100 100 100 100 100 100 100 100 100 100 100 100 100 100 100 100
100 100 100 100 100 100 100 58 75 100 99 100 100 64 100 72 79 65 38 35 55 100 100 100 100 100 100 100 100 100 100 100 100 100 100 100 91 90 100 99 100 97 93
100 100 100 100 100 100 100 93 72 63 85 100 93 100 72 75 100 100 78 52 50 64 100 100 100 100 100 100 100 100 100 100 100 100 100 100 100 100 100 100 100 97 77
96 100 100 100 95 100 100 100 76 84 62 72 79 97 95 71 100 100 87 74 72 59 79 100 100 100 100 100 100 100 100 100 100 100 100 100 100 100 100 100 100 100 100
73 100 100 100 100 100 96 100 100 66 83 79 62 72 79 58 89 100 100 84 100 86 59 90 100 100 100 100 100 100 100 100 100 100 100 100 100 100 100 100 100 100 100
99 84 92 99 100 99 85 80 77 62 60 59 63 69 71 66 86 94 100 100 99 90 66 77 90 100 100 100 100 100 100 100 100 100 100 100 100 100 100 100 100 100 100

GFSSE_250_rhum_375.txt.gz
RH
45 66 80 80 73 52 58 67 54 58 65 58 62 64 66 89 54 52 52 51 51 98 94 79 85 99 100 93 86 93 100 100 88 90 97 96 97 100 100 99 80 64 73
51 59 79 71 94 71 52 72 66 52 68 76 73 72 68 100 54 54 52 50 53 72 87 99 84 77 83 91 89 81 94 97 93 95 94 96 93 94 90 90 100 75 82
78 76 72 80 70 68 83 74 75 78 80 85 85 92 80 96 70 52 58 51 63 63 100 99 100 87 98 100 82 77 90 85 95 100 91 86 94 94 96 84 87 95 69
73 91 77 80 94 100 85 88 86 94 96 88 100 93 95 84 86 56 58 61 68 73 100 100 94 95 96 99 100 100 100 100 99 100 100 99 100 88 88 85 98 77 84
99 97 100 100 85 94 100 100 100 100 100 100 100 100 96 99 100 74 61 74 67 76 100 100 100 100 100 87 100 99 100 100 100 100 100 100 92 95 100 89 85 94 91
100 100 100 100 100 100 100 100 100 100 100 100 100 100 95 94 99 97 78 87 76 77 76 97 100 100 100 100 100 100 100 100 100 100 100 100 98 89 82 88 100 99 77
66 73 87 82 77 85 96 88 97 96 100 100 100 100 92 84 86 85 61 97 84 75 84 92 100 99 100 100 100 100 100 100 100 100 100 100 100 99 74 69 76 100 100
47 73 80 94 86 64 73 84 75 94 88 97 100 100 98 97 93 95 67 80 87 87 84 84 100 100 100 100 100 100 100 100 100 100 100 100 100 99 92 77 74 82 85
40 40 45 52 61 49 47 56 53 74 66 89 94 100 100 100 100 99 77 79 98 93 94 87 97 100 100 100 100 100 100 100 100 100 100 100 100 100 99 97 98 89 87
44 45 42 36 38 38 36 51 52 43 46 55 58 69 99 100 100 100 100 98 100 86 100 100 100 100 100 100 100 100 100 100 100 98 90 100 100 100 100 98 93 100 100
40 40 38 44 44 40 36 39 35 33 36 39 38 29 32 83 94 98 100 100 100 100 96 100 100 100 100 100 100 100 100 99 100 90 93 100 93 100 100 100 95 86 99
76 71 55 52 48 42 42 37 42 66 60 46 36 30 26 28 33 40 68 100 100 100 89 100 100 100 100 100 100 100 98 84 100 80 97 98 100 79 100 97 95 96 87
65 76 76 72 62 51 45 38 41 62 77 63 53 36 27 25 28 36 68 94 100 100 100 87 87 100 100 100 100 100 100 100 98 94 73 100 100 63 66 100 99 86 100
99 94 94 71 94 99 76 63 50 46 57 61 78 68 36 27 31 55 41 71 100 100 100 99 95 100 100 100 100 100 100 98 100 100 100 80 57 53 70 92 94 73 95
69 90 100 100 100 100 100 90 60 46 61 53 54 62 45 43 32 35 33 38 100 100 100 100 100 100 100 100 100 100 100 100 100 100 100 95 100 100 100 90 92 42 49
94 100 95 100 100 100 100 100 74 66 50 66 75 75 64 52 42 35 28 53 100 100 100 100 99 100 100 100 100 100 100 97 100 100 100 100 98 99 98 99 100 100 82
100 100 100 100 95 100 100 100 97 95 72 60 79 100 99 72 44 42 30 34 100 100 100 100 94 100 100 100 100 100 100 100 98 100 100 98 100 83 81 70 73 88 88
100 100 100 100 100 86 94 100 100 100 99 45 63 69 95 70 53 48 34 32 100 100 100 100 84 100 100 100 100 100 100 100 100 100 100 100 94 87 100 100 100 100 100
100 100 100 100 100 100 88 93 100 100 100 90 51 60 84 84 61 49 45 28 100 100 100 100 96 100 100 100 100 100 100 100 100 100 100 100 100 100 100 100 100 100 100
100 100 100 100 100 100 99 84 90 100 100 100 76 51 70 83 68 47 43 33 93 100 100 100 100 100 100 100 100 100 99 100 100 100 100 100 100 100 100 100 95 67 100
100 100 100 100 100 100 100 87 74 87 100 100 100 74 60 74 89 59 39 39 45 100 100 100 100 100 94 100 100 100 100 100 100 100 100 100 100 100 100 71 70 71 83
100 100 100 100 100 100 100 100 91 99 100 100 100 100 70 66 78 82 48 32 35 73 100 100 100 100 100 100 100 100 100 99 98 87 58 100 100 100 100 100 100 100 100
100 100 100 100 100 100 100 100 92 86 90 100 100 100 88 84 73 66 48 38 35 43 88 100 100 100 100 100 100 100 100 100 70 63 98 100 100 100 100 100 100 100 100
100 100 100 100 100 100 100 100 95 73 98 95 100 100 99 70 85 78 49 99 100 60 56 76 94 100 100 100 98 100 100 100 100 100 100 100 100 93 100 100 100 100 100
88 100 100 100 100 100 100 100 98 75 100 100 100 100 100 90 80 86 54 100 100 100 74 70 71 89 100 100 100 100 100 100 100 100 100 100 100 100 100 100 100 100 100
83 97 100 100 100 100 100 100 93 80 100 100 100 100 100 100 75 86 70 98 100 100 100 100 100 89 94 98 100 100 100 100 100 100 100 100 100 100 98 100 100 100 100